Location: Carnetin
(48.9010°N, 2.7059°E)
Time: 13:08:00
(UTC+00:00)

CZ-4C R/B - Pass Details

Date: 25 May 2022
Orbit: 395 x 466 km, 97.7° (Epoch: 02 July)

Event Time Altitude Azimuth Distance (km) Brightness Sun altitude
Rises 20:26:05 0° 355° (N) 2,360 7.4 -7.1°
Reaches altitude 10° 20:29:01 10° 324° (NW) 1,477 7.2 -7.4°
Maximum altitude 20:30:23 12° 298° (WNW) 1,332 6.7 -7.6°
Drops below altitude 10° 20:31:45 10° 272° (W) 1,460 6.2 -7.7°
Sets 20:34:36 0° 241° (WSW) 2,304 6.7 -8.1°
